Weather History for Pittsburgh Allegheny Co., PA

Change the Weather History Date:

Tuesday, February 4, 2014

  Actual Average Record
Temperature  
Mean Temperature 24 °F -  
Max Temperature 32 °F 38 °F 59 °F (1991)
Min Temperature 17 °F 23 °F 3 °F (2007)
Degree Days  
Heating Degree Days 40    
Moisture  
Dew Point 18 °F    
Average Humidity 79    
Maximum Humidity 88    
Minimum Humidity 64    
Precipitation  
Precipitation 0.18 in - - ()
Sea Level Pressure  
Sea Level Pressure 30.27 in    
Wind  
Wind Speed 3 mph (NE)    
Max Wind Speed 10 mph    
Max Gust Speed 17 mph    
Visibility 5 miles    
Events Fog , Snow    
Averages and records for this station are not official NWS values.
T = Trace of Precipitation, MM = Missing Value Source: NWS Daily Summary

Daily Weather History Graph

Daily Weather History Graph

Search for Another Location

Airport:

Trip Planner

Search our weather history database for the weather conditions in past years. The results will help you decide how hot, cold, wet, or windy it might be!

Date:

Astronomy

Feb. 04, 2014 Rise Set
Actual Time 7:25 AM EST 5:41 PM EST
Civil Twilight 6:57 AM EST 6:10 PM EST
Nautical Twilight 6:24 AM EST 6:42 PM EST
Astronomical Twilight 5:53 AM EST 7:14 PM EST
Moon 10:01 AM EST (2/4) 11:35 PM EST (2/4)
Length of Visible Light 11h 13m
Length of Day
10h 15m
Waxing Crescent, 29% of the Moon is Illuminated
Feb 4
Waxing Crescent
Feb 6
First Quarter
Feb 14
Full
Feb 22
Last Quarter
Mar 1
New

Hourly Weather History & Observations

Time (EST) Temp. Windchill Dew Point Humidity Pressure Visibility Wind Dir Wind Speed Gust Speed Precip Events Conditions
12:53 AM 19.0 °F 12.3 °F 14.0 °F 81% 30.39 in 10.0 mi North 4.6 mph - N/A   Clear
1:53 AM 19.0 °F - 12.9 °F 77% 30.39 in 9.0 mi Calm Calm - N/A   Clear
2:53 AM 19.0 °F - 12.9 °F 77% 30.39 in 8.0 mi Calm Calm - N/A   Clear
3:53 AM 18.0 °F - 12.0 °F 78% 30.41 in 7.0 mi Calm Calm - N/A   Clear
4:53 AM 17.1 °F 11.7 °F 12.9 °F 84% 30.38 in 5.0 mi ENE 3.5 mph - N/A   Clear
5:09 AM 17.6 °F 12.3 °F 14.0 °F 86% 30.32 in 2.0 mi NE 3.5 mph - N/A   Clear
5:16 AM 17.6 °F 12.3 °F 14.0 °F 86% 30.32 in 1.5 mi NE 3.5 mph - N/A   Clear
5:26 AM 17.6 °F 10.7 °F 14.0 °F 86% 30.31 in 3.0 mi ENE 4.6 mph - N/A   Clear
5:53 AM 18.0 °F - 12.9 °F 81% 30.40 in 7.0 mi Calm Calm - N/A   Clear
6:53 AM 17.1 °F 11.7 °F 12.9 °F 84% 30.41 in 6.0 mi NNE 3.5 mph - N/A   Clear
7:44 AM 17.6 °F - 14.0 °F 86% 30.35 in 2.5 mi Calm Calm - N/A   Clear
7:53 AM 17.1 °F - 12.9 °F 84% 30.43 in 4.0 mi Calm Calm - N/A   Clear
8:00 AM 17.6 °F - 12.2 °F 79% 30.36 in 2.5 mi Calm Calm - N/A   Clear
8:28 AM 17.6 °F 12.3 °F 14.0 °F 86% 30.35 in 3.0 mi NNE 3.5 mph - N/A   Clear
8:41 AM 19.4 °F 14.3 °F 15.8 °F 86% 30.35 in 2.5 mi North 3.5 mph - N/A   Clear
8:53 AM 19.0 °F - 15.1 °F 85% 30.42 in 2.5 mi Calm Calm - N/A   Clear
9:01 AM 19.4 °F - 15.8 °F 86% 30.34 in 3.0 mi Calm Calm - N/A   Clear
9:31 AM 21.2 °F - 17.6 °F 86% 30.34 in 2.5 mi Calm Calm - N/A   Clear
9:53 AM 21.0 °F - 17.1 °F 85% 30.43 in 3.0 mi Calm Calm - N/A   Clear
10:53 AM 26.1 °F 21.9 °F 19.9 °F 78% 30.43 in 4.0 mi North 3.5 mph - N/A   Haze
11:53 AM 27.0 °F 20.5 °F 19.9 °F 75% 30.38 in 7.0 mi Variable 5.8 mph - N/A   Clear
12:53 PM 30.0 °F 25.2 °F 19.0 °F 64% 30.34 in 10.0 mi NNE 4.6 mph - N/A   Clear
1:53 PM 30.0 °F 23.2 °F 19.0 °F 64% 30.29 in 10.0 mi East 6.9 mph - N/A   Clear
2:53 PM 32.0 °F 27.5 °F 21.0 °F 64% 30.26 in 10.0 mi NE 4.6 mph - N/A   Clear
3:53 PM 32.0 °F 27.5 °F 21.0 °F 64% 30.27 in 10.0 mi ENE 4.6 mph - N/A   Mostly Cloudy
4:53 PM 32.0 °F 27.5 °F 21.9 °F 66% 30.27 in 10.0 mi North 4.6 mph - N/A   Overcast
5:53 PM 30.9 °F 25.2 °F 21.9 °F 69% 30.25 in 10.0 mi NNE 5.8 mph - N/A   Clear
6:53 PM 30.9 °F 25.2 °F 21.0 °F 67% 30.22 in 10.0 mi NNE 5.8 mph - N/A   Clear
7:53 PM 30.9 °F 26.2 °F 21.9 °F 69% 30.20 in 10.0 mi ENE 4.6 mph - N/A   Clear
8:53 PM 30.9 °F 27.5 °F 23.0 °F 72% 30.20 in 10.0 mi NNE 3.5 mph - N/A   Overcast
9:53 PM 30.0 °F 25.2 °F 21.9 °F 72% 30.14 in 10.0 mi Variable 4.6 mph - N/A   Overcast
10:12 PM 30.2 °F 24.3 °F 21.2 °F 69% 30.06 in 2.5 mi Variable 5.8 mph - 0.00 in Snow Light Snow
10:19 PM 28.4 °F 19.1 °F 23.0 °F 80% 30.06 in 0.8 mi NE 10.4 mph 17.3 mph 0.00 in Snow Light Snow
10:27 PM 28.4 °F 22.2 °F 24.8 °F 86% 30.05 in 0.5 mi NE 5.8 mph 16.1 mph 0.02 in Fog , Snow Snow
10:35 PM 28.4 °F 20.4 °F 24.8 °F 86% 30.04 in 0.5 mi ENE 8.1 mph - 0.04 in Fog , Snow Snow
10:53 PM 28.0 °F 20.8 °F 25.0 °F 88% 30.10 in 0.8 mi NE 6.9 mph - 0.07 in Snow Light Snow
11:29 PM 28.4 °F 19.7 °F 24.8 °F 86% 30.00 in 1.2 mi NE 9.2 mph 16.1 mph 0.07 in Snow Light Snow
11:35 PM 28.4 °F 22.2 °F 24.8 °F 86% 30.00 in 2.0 mi ENE 5.8 mph - 0.08 in Snow Light Snow
11:43 PM 28.4 °F 20.4 °F 24.8 °F 86% 30.01 in 1.8 mi ENE 8.1 mph - 0.09 in Snow Light Snow
11:53 PM 28.0 °F 20.8 °F 24.1 °F 85% 30.06 in 1.0 mi ENE 6.9 mph - 0.11 in Snow Light Snow